Location: Newark
(36.0797°N, 3.9744°E)
Time: 23:22:31
(UTC+00:00)

Vanguard 2 Rocket - Pass Details

Date: 17 December 2019
Orbit: 554 x 3326 km, 32.9° (Epoch: 26 January)

Event Time Altitude Azimuth Distance (km) Brightness Sun altitude
Rises 13:01:30 0° 213° (SSW) 7,051 12.6 27.5°
Reaches altitude 10° 13:06:38 10° 206° (SSW) 6,192 12.9 27.1°
Maximum altitude 13:24:13 39° 147° (SSE) 4,184 10.9 25.7°
Drops below altitude 10° 13:38:53 10° 86° (E) 5,251 10.5 24.3°
Sets 13:42:44 0° 79° (E) 5,930 10.7 23.9°
